Other Public Products
Issued by NWS Grand Forks, ND

Home | Current Version | Previous Version | Text Only | Print | Product List | Glossary On
Versions: 1 2 3 4 5 6 7 8 9 10 11 12 13 14 15 16 17 18 19 20 21 22 23 24 25 26 27 28 29 30 31 32 33 34 35 36 37 38 39 40 41 42 43 44 45 46 47 48 49 50
000
FPUS83 KFGF 312231
OPUFGF
PRAIRIE TO PINES WEATHER ROUNDUP
NATIONAL WEATHER SERVICE EASTERN NORTH DAKOTA/GRAND FORKS ND
500 PM CDT TUE MAY 31 2016

 **SATELLITE DATA USED TO AUGMENT SKY COVER AT AUTOMATED STATIONS**
 *****  WEATHER ACROSS EASTERN NORTH DAKOTA  *****

CITY           SKY/WX    TMP DP  RH WIND       PRES   REMARKS
GRAND FORKS    PTSUNNY   67  49  52 S14       29.67F
GRAND FORKS AF MOSUNNY   67  47  48 S10       29.67F
GRAND CITY NWS   N/A     68 N/A N/A SW20        N/A
BUXTON           N/A     69  48  48 S14         N/A
DEVILS LAKE    PTSUNNY   63  48  58 S6        29.64F
FARGO          PTSUNNY   70  44  39 S21G30    29.70F
WAHPETON ARPT  PTCLDY    68  41  37 SW20G31   29.74F
$$

 *****  WEATHER ACROSS CENTRAL AND WESTERN NORTH DAKOTA  *****

CITY           SKY/WX    TMP DP  RH WIND       PRES   REMARKS
JAMESTOWN      PTSUNNY   60  49  66 SW15      29.65F
BISMARCK       MOSUNNY   58  52  80 NW6       29.64S
MINOT          CLOUDY    64  53  67 NW25G32   29.65R
MINOT AFB      CLOUDY    58  53  84 NW21G29   29.64R
GARRISON         N/A     60  53  77 NW25      29.64S
WILLISTON      LGT RAIN  54  49  83 N20G32    29.87R
DICKINSON      LGT RAIN  48  45  89 NW21G32   29.83R
HETTINGER      CLOUDY    54  46  74 NW30G44   29.87R
$$

 *****  OTHER OBSERVATIONS NORTHEAST NORTH DAKOTA  *****

CITY           SKY/WX    TMP DP  RH WIND       PRES   REMARKS
WALHALLA       FAIR      66  63  88 S9        29.63S
LANGDON        LGT RAIN  59  54  82 W9G23     29.65S
CAVALIER       FAIR      66  52  59 S18       29.64S
GRAFTON        FAIR      66  50  55 S18       29.68S
CANDO          FAIR      63  52  67 S13       29.65S
FORT TOTTEN    NOT AVBL
ROLLA          FAIR      63  54  72 S9        29.62F
RUGBY          FAIR      64  48  55 CALM      29.61F
 ***** THE ABOVE OBSERVATIONS ARE NON NWS ARE NOT QUALITY
        CONTROLLED AND MAY MIS-REPORT RAIN FOR SNOW...
$$

 *****  OTHER OBSERVATIONS SOUTHEAST NORTH DAKOTA *****

CITY           SKY/WX    TMP DP  RH WIND       PRES   REMARKS
COOPERSTOWN    NOT AVBL
VALLEY CITY    FAIR      63  50  63 S16       29.68F
OAKES            N/A    N/A N/A N/A MISG        N/A
GWINNER        FAIR      66  46  48 SW24      29.70F
SHEYENNE NWR     N/A     70  47  43 SW16      29.95S
BUFFALO          N/A     61  46  58 W16         N/A
WYNDMERE         N/A     72  45  37 SW22        N/A
 ***** THE ABOVE OBSERVATIONS ARE NON NWS ARE NOT QUALITY
       CONTROLLED AND MAY MIS-REPORT RAIN FOR SNOW...
$$

  *****  WEATHER ACROSS NORTHERN MINNESOTA  *****

CITY           SKY/WX    TMP DP  RH WIND       PRES   REMARKS
FLAG ISLAND    CLOUDY    54  52  94 E10G18    29.76F
WARROAD        CLOUDY    55  54  94 E16       29.75S
ROSEAU         PTSUNNY   61  55  82 E13       29.72S
HALLOCK        CLOUDY    66  52  59 S18       29.67S
THF RVR FALLS  CLOUDY    64  46  52 S15G21    29.72F
HALSTAD        NOT AVBL
FOSSTON        PTSUNNY   66  48  52 S20       29.74F
BAUDETTE       CLOUDY    54  52  93 SE13      29.77F
WASKISH        CLOUDY    61  55  82 E15       29.76F
CROOKSTON      MOSUNNY   66  50  55 SW16      29.70F
$$
  *****  WEATHER ACROSS CENTRAL AND WEST MINNESOTA  *****

CITY           SKY/WX    TMP DP  RH WIND       PRES   REMARKS
BEMIDJI        PTSUNNY   69  49  48 SW16      29.75S
PARK RAPIDS    MOSUNNY   68  47  46 SW13G24   29.77F
WADENA         MOSUNNY   68  48  49 SW17      29.79S
DETROIT LAKES  SUNNY     68  45  42 SW13G22   29.76F
MOORHEAD       MOSUNNY   68  46  45 S16G24    29.72F
FERGUS FALLS   MOSUNNY   70  46  43 SW20G25   29.73F
ELBOW LAKE     FAIR      68  47  46 SW16G26   29.79F
MORRIS MN      MOSUNNY   70  46  43 W14       29.79F
STAPLES        MOSUNNY   68  48  49 SW9       29.79S
WHEATON        PTSUNNY   70  50  49 SW14      29.78F
$$
  *****  WEATHER ELSEWHERE ACROSS MINNESOTA  *****

CITY           SKY/WX    TMP DP  RH WIND       PRES   REMARKS
DULUTH         CLOUDY    48  46  93 E12       29.88S
INTRNTL FALLS  CLOUDY    52  51  97 SE13      29.82F FOG
ELY            CLOUDY    50  48  93 E8        29.89S
CLOQUET        CLOUDY    46  45  93 E9        29.87S
BRAINERD       MOSUNNY   71  51  49 S18       29.80S
HIBBING        CLOUDY    52  51  97 SE9       29.85F
ALEXANDRIA     MOSUNNY   70  45  40 SW17G23   29.82F
SAINT CLOUD    CLOUDY    73  51  46 SW14      29.81F
MINNEAPOLIS    CLOUDY    71  60  68 S8        29.84F
$$

  *****  WEATHER ACROSS SOUTH DAKOTA  *****

CITY           SKY/WX    TMP DP  RH WIND       PRES   REMARKS
SIOUX FALLS    MOSUNNY   71  48  43 W9G22     29.87F
BROOKINGS      MOSUNNY   69  49  48 SW18      29.84F
WATERTOWN      CLOUDY    69  46  43 W18G25    29.80F
HURON          MOSUNNY   72  44  36 W23G36    29.82F
SISSETON         N/A     70  43  37 W24G33    29.76F
ABERDEEN       PTSUNNY   65  46  50 SW29G39   29.75F
MITCHELL       MOSUNNY   75  44  33 W22G30    29.84F
PIERRE         MOSUNNY   68  45  43 W28G40    29.85F
MOBRIDGE       CLOUDY    62  48  60 W26G39    29.71S
RAPID CITY     PTSUNNY   61  40  45 NW23G32   30.00R
$$

  *****  SOME WEATHER IN NEARBY STATES *****

CITY           SKY/WX    TMP DP  RH WIND       PRES   REMARKS
GLASGOW MT     PTSUNNY   62  43  49 N30G37    30.01R
GREAT FALLS MT SUNNY     62  33  33 NW15      30.17F
CHEYENNE WY    LGT RAIN  58  43  57 NE5       30.11F
SCOTTSBLUFF NE PTSUNNY   73  38  27 NW13      30.03F
OMAHA NE       MOSUNNY   77  56  48 N7        29.90F
DES MOINES IA  LGT RAIN  68  64  87 N6        29.89S
DAVENPORT IA   PTSUNNY   76  63  64 SE14      29.92S
CHICAGO IL     RAIN      65  63  93 N8        30.02R FOG
EAU CLAIRE WI  LGT RAIN  62  61  96 S5        29.86F FOG
LA CROSSE WI   TSTM      65  63  93 W3        29.89R VSB 1/4
$$

  *****  SOME NATIONAL WEATHER *****

CITY           SKY/WX    TMP DP  RH WIND       PRES   REMARKS
LA GUARDIA NY  MOSUNNY   81  63  54 SW13      29.91S
RALEIGH NC     PTSUNNY   84  67  56 NE12      29.92F
ATLANTA GA     MOSUNNY   90  60  36 VRB5      29.90F
NEW ORLEANS LA PTSUNNY   86  71  60 S9        29.87F HX  91
OKLAHOMA CITY  CLOUDY    66  61  84 E12       29.87R THUNDER
ALBUQUERQUE NM CLOUDY    76  29  17 SE18      29.96F
SALT LAKE CITY MOSUNNY   77  29  17 N14G20    30.04F
LOS ANGELES CA PTSUNNY   66  57  72 SW13      29.86F
BOISE ID       SUNNY     78  17  10 VRB5      30.05F
SEATTLE WA     PTSUNNY   78  47  33 NW9       30.04F
$$

*** WEATHER ACROSS MANITOBA...SASKATCHEWAN AND ONTARIO ***
                ***ONTARIO***

CITY           SKY/WX    TMP DP  RH WIND       PRES   REMARKS
GERALDTON      PTSUNNY   63  36  36 E12G20    30.09F
THUNDER BAY    LGT RAIN  50  41  71 E10       30.04F
SIOUX LOOKOUT  LGT RAIN  46  45  93 E6        29.95F FOG
TORONTO        PTSUNNY   72  46  40 N20G26    30.02R
BIG TROUT LK   SUNNY     54  32  43 E8        30.17F
PICKLE LAKE    CLOUDY    57  32  38 E14G21    30.06F
DRYDEN         LGT RAIN  48  46  93 E13G18    29.90F
KENORA         LGT RAIN  50  48  93 E16G24    29.82F FOG
$$
                *** MANITOBA***

CITY           SKY/WX    TMP DP  RH WIND       PRES   REMARKS
BRANDON        LGT RAIN  52  50  93 NE29G39   29.67R
DAUPHIN        RAIN      50  50 100 NE23G31   29.84R FOG
ISLAND LAKE    CLOUDY    57  30  35 E7        30.08S
PILOT MOUND      N/A     63  57  82 S16         N/A
THE PAS        CLOUDY    61  36  39 E10       30.03F
THOMPSON       PTSUNNY   61  32  33 NE9       30.11F
WINNIPEG       CLOUDY    57  54  88 E20G28    29.68F
LYNN LAKE      PTSUNNY   61  39  44 VRB6      30.08F
CHURCHILL      MOSUNNY   43  28  56 SE16      30.29F
GILLAM         MOSUNNY   52  30  43 NE12G17   30.20F
$$
                ***SASKATCHEWAN***

CITY           SKY/WX    TMP DP  RH WIND       PRES   REMARKS
ESTEVAN        LGT RAIN  52  50  93 NW25G33   29.83R FOG
KINDERSLEY     PTSUNNY   61  46  59 NW10      30.07F
LLOYDMINSTER   PTSUNNY   63  45  51 NW12      30.08F
PRINCE ALBERT  CLOUDY    61  43  51 E10       30.04S
REGINA         CLOUDY    54  50  87 N15G21    29.96R
YORKTON        LGT RAIN  50  46  87 N20G28    29.92R   C1F1C2F2C3F3C4F4C5F5C6F6C7F7C8F8C9F9CaFaCbFbCcFcCdFdCe!



USA.gov is the U.S. government's official web portal to all federal, state and local government web resources and services.